#timestamp,LO_Frequency,Hit,StdDev 
1628449215.6,286047001.6,N
1628449235.4,286047001.8,N
1628449255.3,286047002.5,N
1628449275.1,286047000.9,N
1628449276.0,286047000.9,N
1628449295.8,286047002.4,N
1628449315.7,286047002.7,Y
1628449335.5,286046998.1,P
1628449355.3,286046998.3,N
1628449375.2,286047000.6,N
1628449395.0,286046999.9,N
1628449395.9,286046999.9,N
1628449415.8,286047000.1,N
1628449435.6,286047000.2,N
1628449455.4,286047000.5,N
1628449475.3,286047002.4,N
1628449495.1,286047002.4,N
1628449515.8,286047002.0,N
1628449535.7,286047002.4,N
1628449555.5,286047001.0,N
1628449575.4,286047000.7,N
1628449595.2,286046998.2,N
1628449615.0,286046998.3,N
1628449615.9,286046998.3,N
1628449635.8,286047001.0,N
1628449655.6,286047000.6,N
1628449675.4,286046999.9,N
1628449695.3,286047000.5,N
1628449715.1,286047002.4,N
1628449735.9,286047002.7,N
1628449755.7,286047002.7,N
1628449775.5,286047002.2,N
1628449795.4,286047002.2,N
1628449815.2,286046999.8,N
1628449835.0,286047000.3,N
1628449836.0,286047000.3,N
1628449855.8,286046999.9,N
1628449875.6,286047000.9,N
1628449895.5,286046998.5,N
1628449915.3,286047001.2,N
1628449935.2,286047000.4,N
1628449955.9,286047000.6,N
1628449975.7,286047000.0,N
1628449995.6,286046996.6,N
1628450015.4,286046997.1,N
1628450035.3,286046997.3,N
1628450055.1,286046999.1,N
1628450056.0,286046999.1,N
1628450075.8,286046998.9,N
1628450095.7,286046999.5,N
1628450115.5,286046999.2,N
1628450135.3,286046997.4,N
1628450155.2,286046994.9,Y
1628450175.0,286046997.2,P
1628450175.9,286046997.2,N
1628450195.8,286046997.6,N
1628450215.6,286046997.1,N
1628450235.4,286046995.5,Y
1628450255.3,286046998.8,P
1628450275.1,286047002.6,P
1628450295.8,286047003.7,N
1628450315.7,286047003.9,N
1628450335.5,286047003.3,N
1628450355.4,286047005.4,N
1628450375.2,286047005.6,N
1628450395.0,286047006.0,N
1628450395.9,286047006.0,N
1628450415.8,286047005.3,N
1628450435.6,286047004.8,N
1628450455.4,286047005.5,N
1628450475.3,286047004.2,N
1628450495.1,286047004.0,N
1628450515.9,286047003.5,N
1628450535.7,286047003.7,N
1628450555.5,286047002.9,N
1628450575.4,286047005.2,N
1628450595.2,286047005.0,N
1628450615.1,286047004.6,N
1628450616.0,286047004.6,N
1628450635.8,286047007.5,Y
1628450655.6,286047000.0,P
1628450675.5,286046998.6,N
1628450695.3,286046999.1,N
1628450715.2,286046998.8,N
1628450735.9,286046999.1,N
1628450755.7,286046998.3,N
1628450775.6,286046998.8,N
1628450795.4,286046999.5,N
1628450815.3,286046996.9,N
1628450835.1,286046996.9,N
1628450836.0,286046996.9,N
1628450855.8,286046998.0,N
1628450875.7,286046998.0,N
1628450895.5,286046997.1,N
1628450915.3,286046997.7,N
1628450935.2,286046997.4,N
1628450955.0,286046995.7,N
1628450955.9,286046995.7,N
1628450975.8,286046993.9,Y
1628450995.6,286046995.4,P
1628451015.4,286046997.7,N
1628451035.3,286046995.0,P
1628451055.1,286046995.7,Y
1628451075.9,286047000.5,P
1628451095.7,286047000.2,N
1628451115.5,286047000.3,N
1628451135.4,286047000.3,N
1628451155.2,286047000.1,N
1628451175.1,286047002.0,N
1628451176.0,286047002.0,N
1628451195.8,286047004.3,N
1628451215.7,286047001.6,N
1628451235.5,286047002.6,N
1628451255.3,286047002.3,N
1628451275.2,286047002.2,N
1628451295.0,286047002.4,N
1628451295.9,286047002.4,N
1628451315.8,286047002.3,N
1628451335.6,286047002.2,N
1628451355.4,286047002.2,N
1628451375.3,286047002.2,N
1628451395.1,286047001.9,N
1628451415.8,286047004.3,N
1628451435.7,286047003.9,N
1628451455.5,286047004.2,N
1628451475.4,286047004.1,N
1628451495.2,286047001.4,N
1628451515.0,286047003.9,N
1628451515.9,286047003.9,N
1628451535.8,286047001.3,N
1628451555.6,286047004.0,N
1628451575.4,286047004.1,N
1628451595.3,286047001.3,N
1628451615.1,286047003.7,N
1628451635.9,286047011.9,Y
1628451655.7,286047002.8,P
1628451675.5,286047001.6,P
1628451695.4,286047003.6,P
1628451715.2,286047002.2,Y
1628451735.1,286046998.7,P
1628451736.0,286046998.7,N
1628451755.8,286046999.5,N
1628451775.6,286046998.3,N
1628451795.5,286046998.1,N
1628451815.3,286047000.6,N
1628451835.1,286047000.9,N
1628451855.9,286047000.7,N
1628451875.7,286047000.4,N
1628451895.5,286046999.7,N
1628451915.4,286047000.6,N
1628451935.2,286046998.3,N
1628451955.1,286047000.9,N
1628451956.0,286047000.9,N
1628451975.8,286046999.9,N
1628451995.6,286047000.3,N
1628452045.5,286046998.6,E
1628452055.4,286047000.4,N
1628452075.3,286047002.4,P
1628452095.1,286047002.6,N
1628452096.0,286047002.6,N
1628452115.8,286047001.4,N
1628452135.7,286047004.0,Y
1628452155.5,286047000.2,P
1628452175.3,286046999.7,N
1628452195.2,286047000.4,N
1628452215.0,286046998.8,N
1628452215.9,286046998.8,N
1628452235.8,286046998.2,N
1628452255.6,286046998.6,N
1628452275.4,286047000.8,N
1628452295.3,286047000.6,N
1628452315.1,286047000.0,N
1628452335.8,286046998.2,N
1628452355.7,286046998.7,N
1628452375.5,286047000.7,N
1628452395.4,286046998.4,N
1628452415.2,286047000.8,N
1628452435.0,286046998.3,N
1628452435.9,286046998.3,N
1628452455.8,286046998.9,N
1628452475.6,286047001.1,N
1628452495.4,286047000.7,N
1628452515.3,286047001.2,N
1628452535.1,286047000.2,N
1628452555.9,286047000.0,N
1628452575.7,286047000.7,N
1628452595.5,286047001.2,N
1628452615.4,286046998.7,N
1628452635.2,286046998.3,N
1628452655.0,286046999.4,N
1628452656.0,286046999.4,N
1628452675.8,286046998.4,N
1628452695.6,286046999.3,N
1628452715.5,286046998.3,N
1628452735.3,286046998.4,N
1628452785.2,286046999.0,E
1628452795.1,286046998.5,N
1628452796.0,286046998.5,P
